Tracking 28794 objects as of 19-Apr-2024
HD Live streaming from Space Station
objects crossing your sky now

DELTA 1 DEB

Track DELTA 1 DEB now!
10-day predictions


NORAD ID: 21464
Int'l Code: 1975-052EY
Perigee: 1,053.6 km
Apogee: 1,385.6 km
Inclination: 99.9 °
Period: 109.7 minutes
Semi major axis: 7590 km
RCS: 0.0779 m2 (small)
Launch date: June 12, 1975
Source: United States (US)
Launch site: AIR FORCE WESTERN TEST RANGE (AFWTR)

Note: This is SATELLITE DEBRIS
Your satellite tracking list
Your tracking list is empty




NASA's NSSDC Master Catalog

Two Line Element Set (TLE):
1 21464U 75052EY  24110.13422750  .00005918  00000-0  14601-1 0  9994
2 21464  99.8756  77.7812 0218655  79.6013 342.2628 13.12766478557670
Source of the keplerian elements: AFSPC